Time,TemperatureF,DewpointF,PressureIn,WindDirection,WindDirectionDegrees,WindSpeedMPH,WindSpeedGustMPH,Humidity,HourlyPrecipIn,Conditions,Clouds,dailyrainin,SolarRadiationWatts/m^2,SoftwareType,DateUTC
2013-01-03 00:33:00,24.0,0.0,-100.00,East,80,2.0,4.0,34,-99.99,,,0.02,0.000000,,2013-01-03 07:33:00,
2013-01-03 00:43:00,24.0,0.0,-100.00,East,80,2.0,4.0,34,-99.99,,,0.02,0.000000,,2013-01-03 07:43:00,
2013-01-03 00:53:00,24.0,0.0,-100.00,East,80,2.0,4.0,34,-99.99,,,0.02,0.000000,,2013-01-03 07:53:00,
2013-01-03 01:02:00,24.0,0.0,-100.00,East,80,2.0,4.0,34,-99.99,,,0.02,0.000000,,2013-01-03 08:02:00,
2013-01-03 01:11:00,24.0,0.0,-100.00,East,80,2.0,4.0,34,-99.99,,,0.02,0.000000,,2013-01-03 08:11:00,
2013-01-03 01:33:00,25.0,1.0,-100.00,NE,42,3.0,5.0,34,0.00,,,0.02,0.000000,,2013-01-03 08:33:00,
2013-01-03 02:34:00,25.0,1.0,-100.00,SE,130,2.0,5.0,35,-99.99,,,0.02,0.000000,,2013-01-03 09:34:00,
2013-01-03 03:33:00,26.0,2.0,-100.00,NE,53,1.0,5.0,34,-99.99,,,0.02,0.000000,,2013-01-03 10:33:00,
2013-01-03 04:33:00,25.0,1.0,-100.00,East,98,1.0,3.0,35,-99.99,,,-99.99,0.000000,,2013-01-03 11:33:00,
2013-01-03 04:43:00,25.0,1.0,-100.00,East,98,1.0,3.0,35,-99.99,,,-99.99,0.000000,,2013-01-03 11:43:00,
2013-01-03 04:53:00,25.0,1.0,-100.00,East,98,1.0,3.0,35,-99.99,,,-99.99,0.000000,,2013-01-03 11:53:00,
2013-01-03 05:43:00,26.0,2.0,-100.00,NE,56,3.0,4.0,35,-99.99,,,0.02,0.000000,,2013-01-03 12:43:00,
2013-01-03 05:53:00,26.0,2.0,-100.00,NE,56,3.0,4.0,35,-99.99,,,0.02,0.000000,,2013-01-03 12:53:00,
2013-01-03 06:33:00,27.0,2.0,-100.00,NE,44,3.0,6.0,33,0.00,,,0.02,0.000000,,2013-01-03 13:33:00,
2013-01-03 07:33:00,28.0,2.0,-100.00,NNW,344,1.0,3.0,32,0.00,,,0.02,0.000000,,2013-01-03 14:33:00,
2013-01-03 08:34:00,28.0,1.0,-100.00,NE,38,1.0,3.0,31,-99.99,,,0.02,0.000000,,2013-01-03 15:34:00,
2013-01-03 09:34:00,28.0,1.0,-100.00,ENE,58,1.0,3.0,31,-99.99,,,0.02,1.000000,,2013-01-03 16:34:00,
2013-01-03 10:33:00,29.0,1.0,-100.00,NE,55,1.0,2.0,29,-99.99,,,0.02,18.000000,,2013-01-03 17:33:00,
2013-01-03 11:33:00,32.0,3.0,-100.00,SE,125,0.0,2.0,29,-99.99,,,0.02,92.000000,,2013-01-03 18:33:00,
2013-01-03 13:33:00,44.0,4.0,-100.00,SSE,163,3.0,5.0,19,-99.99,,,0.02,430.000000,,2013-01-03 20:33:00,
2013-01-03 14:37:00,44.0,11.0,-100.00,SSE,160,4.0,6.0,26,-99.99,,,0.00,429.000000,,2013-01-03 21:37:00,
2013-01-03 15:33:00,42.0,5.0,-100.00,South,181,2.0,6.0,21,-99.99,,,0.00,318.000000,,2013-01-03 22:33:00,
2013-01-03 16:43:00,38.0,2.0,-100.00,SSE,147,3.0,7.0,21,-99.99,,,0.00,207.000000,,2013-01-03 23:43:00,
2013-01-03 16:53:00,38.0,2.0,-100.00,SSE,147,3.0,7.0,21,-99.99,,,0.00,207.000000,,2013-01-03 23:53:00,
2013-01-03 17:33:00,33.0,5.0,-100.00,NE,55,5.0,7.0,30,-99.99,,,0.00,98.000000,,2013-01-04 00:33:00,
2013-01-03 17:42:00,33.0,5.0,-100.00,NE,55,5.0,7.0,30,-99.99,,,0.00,98.000000,,2013-01-04 00:42:00,
2013-01-03 17:52:00,33.0,5.0,-100.00,NE,55,5.0,7.0,30,-99.99,,,0.00,98.000000,,2013-01-04 00:52:00,
2013-01-03 18:33:00,32.0,0.0,-100.00,ENE,60,3.0,7.0,25,0.00,,,-99.99,21.000000,,2013-01-04 01:33:00,
2013-01-03 19:02:00,32.0,0.0,-100.00,ENE,60,3.0,7.0,25,0.00,,,-99.99,21.000000,,2013-01-04 02:02:00,
2013-01-03 19:12:00,32.0,0.0,-100.00,ENE,60,3.0,7.0,25,0.00,,,-99.99,21.000000,,2013-01-04 02:12:00,
2013-01-03 19:33:00,33.0,2.0,-100.00,East,83,3.0,6.0,26,-99.99,,,0.00,0.000000,,2013-01-04 02:33:00,
2013-01-03 20:33:00,32.0,-1.0,-100.00,NE,55,3.0,6.0,24,-99.99,,,0.00,0.000000,,2013-01-04 03:33:00,
2013-01-03 21:02:00,32.0,-1.0,-100.00,NE,55,3.0,6.0,24,-99.99,,,0.00,0.000000,,2013-01-04 04:02:00,
2013-01-03 21:32:00,33.0,0.0,-100.00,SE,138,3.0,7.0,24,-99.99,,,0.00,0.000000,,2013-01-04 04:32:00,
2013-01-03 22:33:00,32.0,0.0,-100.00,SW,217,2.0,7.0,25,-99.99,,,0.00,0.000000,,2013-01-04 05:33:00,
2013-01-03 22:42:00,32.0,0.0,-100.00,SW,217,2.0,7.0,25,-99.99,,,0.00,0.000000,,2013-01-04 05:42:00,
2013-01-03 22:52:00,32.0,0.0,-100.00,SW,217,2.0,7.0,25,-99.99,,,0.00,0.000000,,2013-01-04 05:52:00,
2013-01-03 23:33:00,31.0,-2.0,-100.00,South,176,3.0,9.0,24,-99.99,,,0.00,0.000000,,2013-01-04 06:33:00,